Weather History for Long Beach, CA

Change the Weather History Date:

Tuesday, December 11, 2012

  Actual Average Record
Temperature  
Mean Temperature 57 °F 56 °F  
Max Temperature 67 °F 67 °F 84 °F (1958)
Min Temperature 47 °F 46 °F 34 °F (1972)
Degree Days  
Heating Degree Days 8 9  
Month to date heating degree days 44 90  
Since 1 July heating degree days 121 239  
Cooling Degree Days 0 0  
Month to date cooling degree days 0 0  
Year to date cooling degree days 1383 1125  
Growing Degree Days 5 (Base 50)    
Moisture  
Dew Point 50 °F    
Average Humidity 75    
Maximum Humidity 86    
Minimum Humidity 63    
Precipitation  
Precipitation 0.00 in 0.05 in 1.14 in (1996)
Month to date precipitation 0.66 0.58  
Year to date precipitation 6.47 10.89  
Since 1 July precipitation 2.06 2.45  
Sea Level Pressure  
Sea Level Pressure 30.01 in    
Wind  
Wind Speed 2 mph (SE)    
Max Wind Speed 9 mph    
Max Gust Speed 10 mph    
Visibility 7 miles    
Events      
T = Trace of Precipitation, MM = Missing Value Source: NWS Daily Summary

Daily Weather History Graph

Daily Weather History Graph

Search for Another Location

Airport:

Trip Planner

Search our weather history database for the weather conditions in past years. The results will help you decide how hot, cold, wet, or windy it might be!

Date:

Astronomy

Dec. 11, 2012 Rise Set
Actual Time 6:47 AM PST 4:44 PM PST
Civil Twilight 6:20 AM PST 5:12 PM PST
Nautical Twilight 5:49 AM PST 5:43 PM PST
Astronomical Twilight 5:18 AM PST 6:13 PM PST
Moon 4:50 AM PST (12/11) 3:26 PM PST (12/11)
Length of Visible Light 10h 51m
Length of Day
9h 56m
Waning Crescent, 4% of the Moon is Illuminated
Dec 11
Waning Crescent
Dec 13
New
Dec 19
First Quarter
Dec 28
Full
Jan 4
Last Quarter

Hourly Weather History & Observations

Time (PST) Temp. Dew Point Humidity Pressure Visibility Wind Dir Wind Speed Gust Speed Precip Events Conditions
12:53 AM 53.1 °F 46.9 °F 80% 30.04 in 7.0 mi Calm Calm - N/A   Clear
1:53 AM 53.1 °F 46.0 °F 77% 30.04 in 10.0 mi Calm Calm - N/A   Clear
2:53 AM 52.0 °F 44.1 °F 74% 30.04 in 10.0 mi Calm Calm - N/A   Clear
3:53 AM 50.0 °F 43.0 °F 77% 30.04 in 10.0 mi Calm Calm - N/A   Scattered Clouds
4:53 AM 46.9 °F 42.1 °F 83% 30.03 in 9.0 mi Calm Calm - N/A   Clear
5:14 AM 50.0 °F 42.8 °F 76% 30.03 in 9.0 mi Calm Calm - N/A   Scattered Clouds
5:23 AM 48.2 °F 42.8 °F 82% 30.03 in 8.0 mi Calm Calm - N/A   Mostly Cloudy
5:48 AM 48.2 °F 42.8 °F 82% 30.03 in 9.0 mi Calm Calm - N/A   Scattered Clouds
5:53 AM 48.9 °F 43.0 °F 80% 30.03 in 9.0 mi Calm Calm - N/A   Partly Cloudy
6:53 AM 48.9 °F 43.0 °F 80% 30.04 in 7.0 mi Calm Calm - N/A   Clear
7:24 AM 50.0 °F 42.8 °F 76% 30.04 in 7.0 mi Calm Calm - N/A   Scattered Clouds
7:36 AM 50.0 °F 42.8 °F 76% 30.05 in 8.0 mi Calm Calm - N/A   Mostly Cloudy
7:53 AM 52.0 °F 44.1 °F 74% 30.05 in 8.0 mi Calm Calm - N/A   Overcast
8:00 AM 51.8 °F 44.6 °F 76% 30.05 in 7.0 mi Calm Calm - N/A   Overcast
8:53 AM 55.0 °F 46.0 °F 72% 30.06 in 6.0 mi Calm Calm - N/A   Haze
9:53 AM 60.1 °F 52.0 °F 75% 30.06 in 5.0 mi Calm Calm - N/A   Haze
10:10 AM 62.6 °F 55.4 °F 77% 30.06 in 4.0 mi Calm Calm - N/A   Haze
10:53 AM 64.9 °F 55.0 °F 70% 30.04 in 5.0 mi Calm Calm - N/A   Haze
11:53 AM 66.0 °F 55.0 °F 68% 30.01 in 7.0 mi SSE 3.5 mph - N/A   Clear
12:53 PM 66.0 °F 55.0 °F 68% 29.98 in 9.0 mi SSW 4.6 mph - N/A   Clear
1:53 PM 66.0 °F 55.0 °F 68% 29.96 in 9.0 mi SSW 6.9 mph - N/A   Clear
2:53 PM 66.0 °F 53.1 °F 63% 29.96 in 10.0 mi South 6.9 mph - N/A   Clear
3:53 PM 64.0 °F 52.0 °F 65% 29.95 in 10.0 mi SSW 5.8 mph - N/A   Clear
4:53 PM 62.1 °F 55.0 °F 78% 29.95 in 6.0 mi South 3.5 mph - N/A   Haze
5:53 PM 61.0 °F 55.0 °F 81% 29.97 in 7.0 mi Calm Calm - N/A   Clear
6:53 PM 60.1 °F 54.0 °F 80% 29.98 in 8.0 mi Calm Calm - N/A   Clear
7:53 PM 57.0 °F 53.1 °F 87% 29.98 in 4.0 mi East 4.6 mph - N/A   Clear
8:22 PM 57.2 °F 53.6 °F 88% 29.99 in 5.0 mi NNE 3.5 mph - N/A   Mostly Cloudy
8:53 PM 57.9 °F 54.0 °F 87% 29.99 in 4.0 mi East 3.5 mph - N/A   Mostly Cloudy
9:53 PM 57.0 °F 54.0 °F 89% 29.98 in 3.0 mi Calm Calm - N/A   Mostly Cloudy
10:00 PM 55.4 °F 53.6 °F 94% 29.98 in 3.0 mi Calm Calm - N/A   Clear
10:16 PM 55.4 °F 53.6 °F 94% 29.99 in 2.5 mi ENE 3.5 mph - N/A   Clear
10:28 PM 55.4 °F 53.6 °F 94% 29.99 in 3.0 mi Calm Calm - N/A   Clear
10:53 PM 55.0 °F 52.0 °F 89% 29.99 in 3.0 mi Calm Calm - N/A   Partly Cloudy
11:06 PM 55.4 °F 53.6 °F 94% 29.99 in 3.0 mi Calm Calm - N/A   Mostly Cloudy
11:53 PM 57.0 °F 54.0 °F 89% 29.97 in 8.0 mi ESE 3.5 mph - N/A   Overcast